Time,TemperatureF,DewpointF,PressureIn,WindDirection,WindDirectionDegrees,WindSpeedMPH,WindSpeedGustMPH,Humidity,HourlyPrecipIn,Conditions,Clouds,dailyrainin,SoftwareType,DateUTC
2013-04-13 18:16:00,64.7,35.0,29.64,NNE,22,2.0,10.0,33,0.00,,---,0.01,VWS V14.00,2013-04-13 23:16:00,
2013-04-13 18:17:00,65.2,31.3,29.65,ESE,123,10.0,13.0,28,0.00,,---,0.01,VWS V14.00,2013-04-13 23:17:00,
2013-04-13 18:18:00,65.2,31.3,29.65,SE,134,12.0,14.0,28,0.00,,---,0.01,VWS V14.00,2013-04-13 23:18:00,
2013-04-13 18:22:00,64.5,32.4,29.65,SE,127,4.0,14.0,30,0.00,,---,0.01,VWS V14.00,2013-04-13 23:22:00,
2013-04-13 18:23:00,64.3,33.0,29.65,SE,145,9.0,14.0,31,0.00,,---,0.01,VWS V14.00,2013-04-13 23:23:00,
2013-04-13 18:24:00,64.3,33.0,29.65,SE,134,7.0,14.0,31,0.00,,---,0.01,VWS V14.00,2013-04-13 23:24:00,
2013-04-13 18:27:00,64.3,33.8,29.65,SE,131,10.0,16.0,32,0.00,,---,0.01,VWS V14.00,2013-04-13 23:27:00,
2013-04-13 18:28:00,64.2,33.0,29.65,SE,138,14.0,16.0,31,0.00,,---,0.01,VWS V14.00,2013-04-13 23:28:00,
2013-04-13 18:30:00,63.9,32.7,29.64,SE,124,12.0,14.0,31,0.00,,---,0.01,VWS V14.00,2013-04-13 23:30:00,
2013-04-13 18:34:00,63.7,36.3,29.64,SE,128,10.0,14.0,36,0.00,,---,0.01,VWS V14.00,2013-04-13 23:34:00,
2013-04-13 18:37:00,64.0,34.3,29.64,SE,144,3.0,14.0,33,0.00,,---,0.01,VWS V14.00,2013-04-13 23:37:00,
2013-04-13 18:39:00,64.0,34.3,29.64,SE,133,5.0,14.0,33,0.00,,---,0.01,VWS V14.00,2013-04-13 23:39:00,
2013-04-13 18:41:00,64.0,34.3,29.64,SSE,151,5.0,14.0,33,0.00,,---,0.01,VWS V14.00,2013-04-13 23:41:00,
2013-04-13 18:43:00,63.9,35.7,29.64,SSE,148,11.0,14.0,35,0.00,,---,0.01,VWS V14.00,2013-04-13 23:43:00,
2013-04-13 18:44:00,63.9,36.5,29.65,SSE,157,9.0,14.0,36,0.00,,---,0.01,VWS V14.00,2013-04-13 23:44:00,
2013-04-13 18:45:00,63.9,36.5,29.65,South,182,6.0,14.0,36,0.00,,---,0.01,VWS V14.00,2013-04-13 23:45:00,
2013-04-13 18:46:00,63.7,36.3,29.65,SSE,154,8.0,14.0,36,0.00,,---,0.01,VWS V14.00,2013-04-13 23:46:00,
2013-04-13 18:48:00,63.7,35.6,29.65,SE,138,7.0,14.0,35,0.00,,---,0.01,VWS V14.00,2013-04-13 23:48:00,
2013-04-13 18:49:00,63.5,37.5,29.65,ESE,119,2.0,17.0,38,0.00,,---,0.01,VWS V14.00,2013-04-13 23:49:00,
2013-04-13 18:51:00,63.5,37.5,29.65,SE,136,11.0,17.0,38,0.00,,---,0.01,VWS V14.00,2013-04-13 23:51:00,
2013-04-13 18:53:00,63.2,35.8,29.65,South,186,8.0,21.0,36,0.00,,---,0.01,VWS V14.00,2013-04-13 23:53:00,
2013-04-13 18:54:00,62.9,36.2,29.65,South,176,7.0,21.0,37,0.00,,---,0.01,VWS V14.00,2013-04-13 23:54:00,
2013-04-13 18:56:00,62.9,36.9,29.65,SSW,195,14.0,21.0,38,0.00,,---,0.01,VWS V14.00,2013-04-13 23:56:00,
2013-04-13 18:57:00,62.9,37.6,29.65,South,171,11.0,21.0,39,0.00,,---,0.01,VWS V14.00,2013-04-13 23:57:00,
2013-04-13 18:59:00,62.9,36.2,29.65,South,175,14.0,21.0,37,0.00,,---,0.01,VWS V14.00,2013-04-13 23:59:00,
2013-04-13 19:00:00,62.9,36.2,29.65,SE,144,11.0,14.0,37,0.00,,---,0.01,VWS V14.00,2013-04-14 00:00:00,
2013-04-13 19:01:00,62.6,36.0,29.65,South,185,13.0,20.0,37,0.00,,---,0.01,VWS V14.00,2013-04-14 00:01:00,
2013-04-13 19:02:00,62.3,37.0,29.65,South,175,13.0,22.0,39,0.00,,---,0.01,VWS V14.00,2013-04-14 00:02:00,
2013-04-13 19:04:00,62.1,35.5,29.65,South,178,1.0,22.0,37,0.00,,---,0.01,VWS V14.00,2013-04-14 00:04:00,
2013-04-13 19:05:00,62.1,35.5,29.65,SSW,212,21.0,22.0,37,0.00,,---,0.01,VWS V14.00,2013-04-14 00:05:00,
2013-04-13 19:07:00,61.6,37.7,29.65,SSE,168,14.0,22.0,41,0.00,,---,0.01,VWS V14.00,2013-04-14 00:07:00,
2013-04-13 19:09:00,61.5,35.7,29.65,SSW,196,10.0,22.0,38,0.00,,---,0.01,VWS V14.00,2013-04-14 00:09:00,
2013-04-13 19:10:00,61.5,35.7,29.65,South,169,12.0,22.0,38,0.00,,---,0.01,VWS V14.00,2013-04-14 00:10:00,
2013-04-13 19:13:00,61.5,36.3,29.65,SSW,196,13.0,22.0,39,0.00,,---,0.01,VWS V14.00,2013-04-14 00:13:00,
2013-04-13 19:15:00,61.3,36.2,29.63,South,188,16.0,22.0,39,0.00,,---,0.01,VWS V14.00,2013-04-14 00:15:00,
2013-04-13 19:19:00,60.5,36.1,29.63,SSW,202,10.0,22.0,40,0.00,,---,0.01,VWS V14.00,2013-04-14 00:19:00,
2013-04-13 19:20:00,60.5,36.7,29.63,SSE,162,5.0,22.0,41,0.00,,---,0.01,VWS V14.00,2013-04-14 00:20:00,
2013-04-13 19:24:00,60.2,35.8,29.63,South,175,15.0,22.0,40,0.00,,---,0.01,VWS V14.00,2013-04-14 00:24:00,
2013-04-13 19:25:00,60.1,35.7,29.63,South,179,11.0,22.0,40,0.00,,---,0.01,VWS V14.00,2013-04-14 00:25:00,
2013-04-13 19:26:00,60.1,35.7,29.63,South,181,12.0,22.0,40,0.00,,---,0.01,VWS V14.00,2013-04-14 00:26:00,
2013-04-13 19:27:00,59.9,36.8,29.63,SSE,167,13.0,22.0,42,0.00,,---,0.01,VWS V14.00,2013-04-14 00:27:00,
2013-04-13 19:29:00,59.5,36.4,29.63,SSE,160,13.0,18.0,42,0.00,,---,0.01,VWS V14.00,2013-04-14 00:29:00,
2013-04-13 19:31:00,59.5,37.0,29.63,SSE,147,10.0,18.0,43,0.00,,---,0.01,VWS V14.00,2013-04-14 00:31:00,
2013-04-13 19:32:00,59.5,37.0,29.63,SSE,168,6.0,18.0,43,0.00,,---,0.01,VWS V14.00,2013-04-14 00:32:00,
2013-04-13 19:35:00,59.3,37.4,29.63,SSE,160,8.0,18.0,44,0.00,,---,0.01,VWS V14.00,2013-04-14 00:35:00,
2013-04-13 19:37:00,59.2,37.3,29.63,SSE,150,11.0,18.0,44,0.00,,---,0.01,VWS V14.00,2013-04-14 00:37:00,
2013-04-13 19:38:00,59.2,37.3,29.63,SSE,150,5.0,18.0,44,0.00,,---,0.01,VWS V14.00,2013-04-14 00:38:00,
2013-04-13 19:40:00,59.0,37.1,29.63,South,172,8.0,18.0,44,0.00,,---,0.01,VWS V14.00,2013-04-14 00:40:00,
2013-04-13 19:42:00,59.0,37.1,29.63,SSE,161,5.0,19.0,44,0.00,,---,0.01,VWS V14.00,2013-04-14 00:42:00,
2013-04-13 19:43:00,59.0,37.1,29.63,South,176,7.0,19.0,44,0.00,,---,0.01,VWS V14.00,2013-04-14 00:43:00,
2013-04-13 19:45:00,58.9,37.0,29.63,SSE,160,3.0,19.0,44,0.00,,---,0.01,VWS V14.00,2013-04-14 00:45:00,
2013-04-13 19:48:00,59.0,35.3,29.63,South,179,14.0,19.0,41,0.00,,---,0.01,VWS V14.00,2013-04-14 00:48:00,
2013-04-13 19:50:00,59.0,36.0,29.63,SE,144,0.0,19.0,42,0.00,,---,0.01,VWS V14.00,2013-04-14 00:50:00,
2013-04-13 19:53:00,59.0,34.7,29.63,SSE,158,5.0,19.0,40,0.00,,---,0.01,VWS V14.00,2013-04-14 00:53:00,
2013-04-13 19:55:00,59.2,35.5,29.63,South,175,7.0,19.0,41,0.00,,---,0.01,VWS V14.00,2013-04-14 00:55:00,
2013-04-13 19:56:00,59.2,35.5,29.63,South,189,3.0,19.0,41,0.00,,---,0.01,VWS V14.00,2013-04-14 00:56:00,
2013-04-13 19:58:00,59.2,35.5,29.63,ESE,113,0.0,19.0,41,0.00,,---,0.01,VWS V14.00,2013-04-14 00:58:00,
2013-04-13 20:00:00,59.2,36.1,29.65,ESE,107,0.0,0.0,42,0.00,,---,0.01,VWS V14.00,2013-04-14 01:00:00,
2013-04-13 20:02:00,58.9,35.9,29.65,South,172,11.0,18.0,42,0.00,,---,0.01,VWS V14.00,2013-04-14 01:02:00,
2013-04-13 20:03:00,58.9,35.9,29.65,South,182,10.0,18.0,42,0.00,,---,0.01,VWS V14.00,2013-04-14 01:03:00,
2013-04-13 20:05:00,58.7,35.1,29.65,South,176,0.0,18.0,41,0.00,,---,0.01,VWS V14.00,2013-04-14 01:05:00,
2013-04-13 20:08:00,58.9,34.0,29.65,SSW,203,0.0,20.0,39,0.00,,---,0.01,VWS V14.00,2013-04-14 01:08:00,
2013-04-13 20:09:00,58.9,34.6,29.65,SSW,196,0.0,20.0,40,0.00,,---,0.01,VWS V14.00,2013-04-14 01:09:00,
2013-04-13 20:10:00,59.0,34.7,29.65,SSW,203,3.0,20.0,40,0.00,,---,0.01,VWS V14.00,2013-04-14 01:10:00,
2013-04-13 20:11:00,59.0,34.7,29.65,SSW,193,17.0,20.0,40,0.00,,---,0.01,VWS V14.00,2013-04-14 01:11:00,
2013-04-13 20:14:00,59.2,34.3,29.62,SE,136,0.0,20.0,39,0.00,,---,0.01,VWS V14.00,2013-04-14 01:14:00,
2013-04-13 20:15:00,59.2,35.5,29.62,SE,136,0.0,20.0,41,0.00,,---,0.01,VWS V14.00,2013-04-14 01:15:00,
2013-04-13 20:16:00,59.2,35.5,29.62,SE,136,0.0,20.0,41,0.00,,---,0.01,VWS V14.00,2013-04-14 01:16:00,
2013-04-13 20:21:00,58.3,39.2,29.62,West,265,0.0,20.0,49,0.00,,---,0.01,VWS V14.00,2013-04-14 01:21:00,
2013-04-13 20:22:00,58.0,39.0,29.62,West,267,0.0,20.0,49,0.00,,---,0.01,VWS V14.00,2013-04-14 01:22:00,
2013-04-13 20:26:00,57.5,38.5,29.62,West,267,0.0,20.0,49,0.00,,---,0.01,VWS V14.00,2013-04-14 01:26:00,
2013-04-13 20:28:00,57.2,38.2,29.62,West,270,6.0,20.0,49,0.00,,---,0.01,VWS V14.00,2013-04-14 01:28:00,
2013-04-13 20:29:00,57.2,38.2,29.62,West,270,0.0,20.0,49,0.00,,---,0.01,VWS V14.00,2013-04-14 01:29:00,
2013-04-13 20:31:00,57.0,38.6,29.62,West,268,0.0,0.0,50,0.00,,---,0.01,VWS V14.00,2013-04-14 01:31:00,
2013-04-13 20:32:00,56.9,38.5,29.62,West,268,0.0,0.0,50,0.00,,---,0.01,VWS V14.00,2013-04-14 01:32:00,
2013-04-13 20:33:00,56.7,38.3,29.62,West,270,0.0,0.0,50,0.00,,---,0.01,VWS V14.00,2013-04-14 01:33:00,
2013-04-13 20:34:00,56.7,38.8,29.62,West,271,0.0,5.0,51,0.00,,---,0.01,VWS V14.00,2013-04-14 01:34:00,
2013-04-13 20:37:00,56.6,38.7,29.62,West,274,5.0,7.0,51,0.00,,---,0.01,VWS V14.00,2013-04-14 01:37:00,
2013-04-13 20:39:00,56.6,38.7,29.62,West,275,6.0,10.0,51,0.00,,---,0.01,VWS V14.00,2013-04-14 01:39:00,
2013-04-13 20:40:00,56.5,38.6,29.62,West,274,0.0,10.0,51,0.00,,---,0.01,VWS V14.00,2013-04-14 01:40:00,
2013-04-13 20:42:00,56.3,38.9,29.62,West,278,0.0,10.0,52,0.00,,---,0.01,VWS V14.00,2013-04-14 01:42:00,
2013-04-13 20:45:00,55.9,38.5,29.62,WNW,285,0.0,10.0,52,0.00,,---,0.01,VWS V14.00,2013-04-14 01:45:00,
2013-04-13 20:47:00,55.6,38.8,29.62,WNW,282,0.0,10.0,53,0.00,,---,0.01,VWS V14.00,2013-04-14 01:47:00,
2013-04-13 20:48:00,55.6,38.8,29.62,WNW,284,8.0,10.0,53,0.00,,---,0.01,VWS V14.00,2013-04-14 01:48:00,
2013-04-13 20:50:00,55.4,38.6,29.62,WNW,282,0.0,10.0,53,0.00,,---,0.01,VWS V14.00,2013-04-14 01:50:00,
2013-04-13 20:52:00,55.4,38.6,29.62,WNW,282,0.0,10.0,53,0.00,,---,0.01,VWS V14.00,2013-04-14 01:52:00,
2013-04-13 20:53:00,55.4,39.0,29.62,WNW,282,0.0,10.0,54,0.00,,---,0.01,VWS V14.00,2013-04-14 01:53:00,
2013-04-13 20:55:00,55.3,39.0,29.62,WNW,282,0.0,10.0,54,0.00,,---,0.01,VWS V14.00,2013-04-14 01:55:00,
2013-04-13 20:57:00,55.3,39.0,29.62,WNW,282,0.0,10.0,54,0.00,,---,0.01,VWS V14.00,2013-04-14 01:57:00,
2013-04-13 20:58:00,55.3,39.0,29.64,WNW,282,0.0,10.0,54,0.00,,---,0.01,VWS V14.00,2013-04-14 01:58:00,
2013-04-13 21:00:00,55.1,38.8,29.64,WNW,282,0.0,0.0,54,0.00,,---,0.01,VWS V14.00,2013-04-14 02:00:00,
2013-04-13 21:02:00,55.0,38.7,29.64,WNW,282,0.0,0.0,54,0.00,,---,0.01,VWS V14.00,2013-04-14 02:02:00,
2013-04-13 21:04:00,55.0,38.7,29.64,WNW,282,0.0,0.0,54,0.00,,---,0.01,VWS V14.00,2013-04-14 02:04:00,
2013-04-13 21:05:00,55.0,38.7,29.64,WNW,282,0.0,0.0,54,0.00,,---,0.01,VWS V14.00,2013-04-14 02:05:00,
2013-04-13 21:06:00,55.0,38.7,29.64,WNW,282,0.0,0.0,54,0.00,,---,0.01,VWS V14.00,2013-04-14 02:06:00,
2013-04-13 21:08:00,54.8,39.0,29.64,WNW,282,0.0,0.0,55,0.00,,---,0.01,VWS V14.00,2013-04-14 02:08:00,
2013-04-13 21:09:00,54.7,38.4,29.64,WNW,282,0.0,0.0,54,0.00,,---,0.01,VWS V14.00,2013-04-14 02:09:00,
2013-04-13 21:11:00,54.5,38.7,29.64,WNW,282,0.0,0.0,55,0.00,,---,0.01,VWS V14.00,2013-04-14 02:11:00,
2013-04-13 21:13:00,54.4,38.6,29.64,WNW,282,0.0,0.0,55,0.00,,---,0.01,VWS V14.00,2013-04-14 02:13:00,
2013-04-13 21:14:00,54.4,38.6,29.57,WNW,282,0.0,0.0,55,0.00,,---,0.01,VWS V14.00,2013-04-14 02:14:00,
2013-04-13 21:16:00,54.2,38.4,29.57,WNW,282,0.0,0.0,55,0.00,,---,0.01,VWS V14.00,2013-04-14 02:16:00,
2013-04-13 21:18:00,54.1,38.3,29.57,WNW,282,0.0,0.0,55,0.00,,---,0.01,VWS V14.00,2013-04-14 02:18:00,
2013-04-13 21:19:00,53.9,38.1,29.57,WNW,282,0.0,0.0,55,0.00,,---,0.01,VWS V14.00,2013-04-14 02:19:00,
2013-04-13 21:22:00,53.6,37.8,29.57,WNW,282,0.0,0.0,55,0.00,,---,0.01,VWS V14.00,2013-04-14 02:22:00,
2013-04-13 21:23:00,53.3,37.6,29.57,WNW,282,0.0,0.0,55,0.00,,---,0.01,VWS V14.00,2013-04-14 02:23:00,
2013-04-13 21:25:00,53.1,37.4,29.57,WNW,282,0.0,0.0,55,0.00,,---,0.01,VWS V14.00,2013-04-14 02:25:00,
2013-04-13 21:27:00,52.8,37.1,29.57,WNW,282,0.0,0.0,55,0.00,,---,0.01,VWS V14.00,2013-04-14 02:27:00,
2013-04-13 21:28:00,52.5,36.8,29.57,WNW,282,0.0,0.0,55,0.00,,---,0.01,VWS V14.00,2013-04-14 02:28:00,
2013-04-13 21:30:00,52.0,36.8,29.58,WNW,282,0.0,0.0,56,0.00,,---,0.01,VWS V14.00,2013-04-14 02:30:00,
2013-04-13 21:33:00,51.4,36.7,29.58,WNW,282,0.0,0.0,57,0.00,,---,0.01,VWS V14.00,2013-04-14 02:33:00,
2013-04-13 21:35:00,51.3,36.6,29.58,WNW,282,0.0,0.0,57,0.00,,---,0.01,VWS V14.00,2013-04-14 02:35:00,
2013-04-13 21:38:00,51.0,36.8,29.58,WNW,282,0.0,0.0,58,0.00,,---,0.01,VWS V14.00,2013-04-14 02:38:00,
2013-04-13 21:40:00,50.8,36.6,29.58,WNW,282,0.0,0.0,58,0.00,,---,0.01,VWS V14.00,2013-04-14 02:40:00,
2013-04-13 21:43:00,50.5,36.7,29.58,WNW,282,0.0,0.0,59,0.00,,---,0.01,VWS V14.00,2013-04-14 02:43:00,
2013-04-13 21:44:00,50.4,36.6,29.60,WNW,282,0.0,0.0,59,0.00,,---,0.01,VWS V14.00,2013-04-14 02:44:00,
2013-04-13 21:45:00,49.8,36.9,29.60,WNW,282,0.0,0.0,61,0.00,,---,0.01,VWS V14.00,2013-04-14 02:45:00,
2013-04-13 21:46:00,49.5,36.2,29.60,WNW,282,0.0,0.0,60,0.00,,---,0.01,VWS V14.00,2013-04-14 02:46:00,
2013-04-13 21:48:00,49.2,35.9,29.60,WNW,282,0.0,0.0,60,0.00,,---,0.01,VWS V14.00,2013-04-14 02:48:00,
2013-04-13 21:49:00,49.1,35.8,29.60,WNW,282,0.0,0.0,60,0.00,,---,0.01,VWS V14.00,2013-04-14 02:49:00,
2013-04-13 21:51:00,48.9,36.1,29.60,WNW,282,0.0,0.0,61,0.00,,---,0.01,VWS V14.00,2013-04-14 02:51:00,
2013-04-13 21:54:00,48.6,36.2,29.60,WNW,282,0.0,0.0,62,0.00,,---,0.01,VWS V14.00,2013-04-14 02:54:00,
2013-04-13 21:57:00,48.3,35.9,29.60,WNW,282,0.0,0.0,62,0.00,,---,0.01,VWS V14.00,2013-04-14 02:57:00,
2013-04-13 21:59:00,48.0,35.6,29.61,WNW,282,0.0,0.0,62,0.00,,---,0.01,VWS V14.00,2013-04-14 02:59:00,